Regional Weather Roundup
Issued by NWS

Home | Current Version | Previous Version | Text Only | Print | Product List | Glossary Off
Versions: 1 2 3 4 5 6 7 8 9 10 11 12 13 14 15 16 17 18 19 20 21 22 23 24 25 26 27 28 29 30 31 32 33 34 35 36 37 38 39 40 41 42 43 44 45 46 47 48 49 50

000
ASUS45 KABQ 281501
RWRNM
NEW MEXICO REGIONAL WEATHER ROUNDUP
NATIONAL WEATHER SERVICE ALBUQUERQUE NM
900 AM MDT SUN AUG 28 2016

NOTE: "FAIR" MEANS FEW OR NO CLOUDS BELOW 12,000 FEET AGL WITH NO
       SIGNIFICANT WEATHER OR OBSTRUCTIONS TO VISION.

      THIS PRODUCT IS RELEASED AS TWO VERSIONS.  ONE VERSION NEAR
      THE TOP OF THE HOUR CONTAINING PRELIMINARY DATA FROM ALBUQUERQUE
      AND OTHER STATIONS.  A FINAL VERSION WITH ADDITIONAL DATA IS
      ISSUED ABOUT 10 MINUTES AFTER THE HOUR.

NMZ501-503-504-510>518-281600-
NORTHWEST PLATEAU/NORTHCENTRAL MOUNTAINS

CITY           SKY/WX    TMP DP  RH WIND       PRES   REMARKS
FARMINGTON     FAIR      57  49  74 E7        30.29R
SANTA FE       CLOUDY    61  49  64 N13       30.31S
TAOS           FAIR      55  41  58 CALM      30.38S
ANGEL FIRE     FAIR      50  42  74 CALM      30.43S

$$
NMZ402-403-502-505>509-281600-
WESTCENTRAL MOUNTAINS/SOUTHWEST MOUNTAINS

CITY           SKY/WX    TMP DP  RH WIND       PRES   REMARKS
GALLUP         FAIR      59  49  69 NE7       30.33R
GRANTS         FAIR      59  47  65 CALM      30.36S
SILVER CITY    FAIR      66  53  61 CALM      30.25S

$$
NMZ407-409-411-412-281600-
SOUTHERN DESERTS

CITY           SKY/WX    TMP DP  RH WIND       PRES   REMARKS
DEMING         FAIR      73  55  53 E10       30.19R
LAS CRUCES     CLOUDY    70  59  67 NE5       30.21S
HOLLOMAN AFB   FAIR      68  60  75 NW5       30.18S
ALAMOGORDO     FAIR      70  57  64 NW3       30.20S
T OR C         FAIR      68  51  54 N6        30.23S

$$
NMZ519>523-281600-
CENTRAL VALLEYS/CENTRAL HIGHLANDS

CITY           SKY/WX    TMP DP  RH WIND       PRES   REMARKS
ALBUQUERQUE    FAIR      63  50  62 N8        30.29R
DOUBLE EAGLE   PTSUNNY   61  52  72 N8        30.31S
MORIARTY ARPT  FAIR      60  49  68 N5        30.33S
CLINES CORNERS FAIR      63  45  51 NW7       30.35S
BELEN          PTSUNNY   62  52  71 CALM      30.29R
SOCORRO        FAIR      64  51  62 NW9       30.27R

$$
NMZ524>526-539-540-281600-
SOUTHCENTRAL MOUNTAINS

CITY           SKY/WX    TMP DP  RH WIND       PRES   REMARKS
RUIDOSO          N/A     63  48  59 CALM      30.36F

$$
NMZ527>531-281600-
NORTHEAST HIGHLANDS/NORTHEAST PLAINS

CITY           SKY/WX    TMP DP  RH WIND       PRES   REMARKS
LAS VEGAS      FAIR      62  45  53 CALM      30.32S
RATON          FAIR      62  52  69 VRB6      30.27F
CLAYTON        FAIR      65  59  81 SW12      30.20F

$$
NMZ532>537-281600-
EASTCENTRAL PLAINS

CITY           SKY/WX    TMP DP  RH WIND       PRES   REMARKS
TUCUMCARI      FAIR      72  58  61 SW15      30.18S
CANNON AFB     PTSUNNY   69  60  75 W10       30.19F
CLOVIS AIRPORT FAIR      70  57  64 W9        30.18F

$$
NMZ028-029-538-281600-
SOUTHEAST PLAINS

CITY           SKY/WX    TMP DP  RH WIND       PRES   REMARKS
ROSWELL        PTSUNNY   70  61  73 W5        30.17S
ARTESIA        PTSUNNY   70  64  83 W3        30.17F
CARLSBAD       FAIR      73  61  65 N7        30.15S
HOBBS          SUNNY     72  63  73 E7        30.19S


$$



USA.gov is the U.S. government's official web portal to all federal, state and local government web resources and services.